Terminal Aerodrome Forecast
Issued by NWS

Home | Current Version | Previous Version | Graphics & Text | Print | Product List | Glossary On
Versions: 1 2 3 4 5 6 7 8 9 10 11 12 13 14 15 16 17 18 19 20 21 22 23 24 25 26 27 28 29 30
169
FTUS43 KABR 102331 CCA
TAFPIR
TAF COR
KPIR 102331Z 1100/1124 03016KT P6SM SKC
     FM110500 VRB03KT P6SM OVC015
     FM111400 13007KT 3SM -SN BKN015 OVC035=

USA.gov is the U.S. government's official web portal to all federal, state and local government web resources and services.